Showing default

OT-FOREST-3 BJOERNTBW, 62682

Orbit data source: Space-Track

OT-FOREST-3 BJOERNTBW, 62682 is a payload satellite owned by OroraTech (DE) in SSO that was launched on Tue, 14 Jan 2025 UTC via an FALCON 9 launch vehicle from the Air Force Western Test Range (AFWTR). Payload-class satellites include a variety of spacecraft equipped with specific instruments for various scientific and technological missions. These include communications satellites like Starlink; space stations such as the ISS; scientific satellites like the Hubble; Earth observation satellites from companies like Planet Labs, Umbra, and HawkEye 360; GPS; miniature CubeSats for education and research; and military/defense satellites.

Loading next visibility...
Identifier
62682, 2025-009CB
Orbit
SSO
Country
Flag of DEDE / GER
Related business
Manufacturer
ORORA?
Mission
Operational Commercial Imaging
Bus & Motor
CUBESAT 8U, Unknown motor
Mass
~15 kg wet, ~15 kg dry
Launch date (UTC)
2025-01-14 (2 years ago)
Launch vehicle
FALCON 9
Launch site
Air Force Western Test Range (AFWTR)
Object type
Payload
Rocket body
Debris
Shape & HBR
Box, 0.2 m
Radar Cross Section
0.100 m², Medium (>0.1 m² and < 1m²)

Expand to show TLE details & history
Last TLE update: 13 hours ago

TLE from 13 hours ago
0 OT-FOREST-3 BJOERNTBW
1 62682U 25009CB  26238.16871325  .00005348  00000-0  21358-3 0  9996
2 62682  97.3871 316.7416 0006689  97.5340 262.6658 15.25545980147108
Epoch: 2026-08-26T04:02Z
TLE epoch observation values (Epoch: 2026-08-26T04:02:56.824Z)
Latitude
-0.00007°
Longitude
-78.42073°
Altitude
492.834 km
Speed
7.618 km/s
True Right ascension
21h 06m 57s
True Declination
0° 00' 00"
Sunlit
Object was in full shadow at epoch
Visualization orbit readout
Latitude
Unknown
Longitude
Unknown
Altitude
Unknown
Speed
Unknown
Apparent Right ascension
Unknown
Apparent Declination
Unknown
Sunlit
N/A
Visualization observer readout
Local Sidereal Time
08:07:45
Azimuth
Unknown
Elevation
Unknown
Doppler factor
Unknown
Orbital elements
Apogee altitude
490.696 km
Perigee altitude
481.513 km
Semi-major axis
6,864.241 km
Eccentricity
0.00067
Inclination
97.3871°
RAAN
316.7416°
Arg. of periapsis
97.534°
True anomaly
262.58978°
Mean anomaly
262.6658°
Eccentric anomaly
262.62779°
Mean motion
3.8164 °/min
Orbital period
94.33 mins
BSTAR
0.00021358
Loading maneuver chart data...
Computing Atmospheric mass density...
Loading historical data...
Loading historical data...
Loading historical data...
Loading historical data...
Loading historical data...
Loading historical data...
Loading historical data...

Documentation

Showing up to 5 results
|